Time,TemperatureF,DewpointF,PressureIn,WindDirection,WindDirectionDegrees,WindSpeedMPH,WindSpeedGustMPH,Humidity,HourlyPrecipIn,Conditions,Clouds,dailyrainin,SolarRadiationWatts/m^2,SoftwareType,DateUTC
2013-06-05 00:01:00,62.0,55.0,-100.00,North,4,15.0,24.0,78,0.00,,,0.00,0.000000,,2013-06-05 10:01:00,
2013-06-05 00:23:00,62.0,55.0,-100.00,North,4,15.0,24.0,78,0.00,,,0.00,0.000000,,2013-06-05 10:23:00,
2013-06-05 00:33:00,62.0,55.0,-100.00,North,4,15.0,24.0,78,0.00,,,0.00,0.000000,,2013-06-05 10:33:00,
2013-06-05 00:42:00,62.0,55.0,-100.00,North,4,15.0,24.0,78,0.00,,,0.00,0.000000,,2013-06-05 10:42:00,
2013-06-05 00:52:00,62.0,55.0,-100.00,North,4,15.0,24.0,78,0.00,,,0.00,0.000000,,2013-06-05 10:52:00,
2013-06-05 01:01:00,63.0,53.0,-100.00,North,354,15.0,22.0,69,0.00,,,-99.99,0.000000,,2013-06-05 11:01:00,
2013-06-05 01:22:00,63.0,53.0,-100.00,North,354,15.0,22.0,69,0.00,,,-99.99,0.000000,,2013-06-05 11:22:00,
2013-06-05 01:33:00,63.0,53.0,-100.00,North,354,15.0,22.0,69,0.00,,,-99.99,0.000000,,2013-06-05 11:33:00,
2013-06-05 01:42:00,63.0,53.0,-100.00,North,354,15.0,22.0,69,0.00,,,-99.99,0.000000,,2013-06-05 11:42:00,
2013-06-05 01:52:00,63.0,53.0,-100.00,North,354,15.0,22.0,69,0.00,,,-99.99,0.000000,,2013-06-05 11:52:00,
2013-06-05 02:01:00,63.0,53.0,-100.00,North,8,14.0,23.0,69,0.00,,,0.00,0.000000,,2013-06-05 12:01:00,
2013-06-05 02:22:00,63.0,53.0,-100.00,North,8,14.0,23.0,69,0.00,,,0.00,0.000000,,2013-06-05 12:22:00,
2013-06-05 02:32:00,63.0,53.0,-100.00,North,8,14.0,23.0,69,0.00,,,0.00,0.000000,,2013-06-05 12:32:00,
2013-06-05 02:44:00,63.0,53.0,-100.00,North,8,14.0,23.0,69,0.00,,,0.00,0.000000,,2013-06-05 12:44:00,
2013-06-05 02:52:00,63.0,53.0,-100.00,North,8,14.0,23.0,69,0.00,,,0.00,0.000000,,2013-06-05 12:52:00,
2013-06-05 03:01:00,62.0,54.0,-100.00,North,11,13.0,22.0,74,0.00,,,0.00,0.000000,,2013-06-05 13:01:00,
2013-06-05 03:22:00,62.0,54.0,-100.00,North,11,13.0,22.0,74,0.00,,,0.00,0.000000,,2013-06-05 13:22:00,
2013-06-05 03:33:00,62.0,54.0,-100.00,North,11,13.0,22.0,74,0.00,,,0.00,0.000000,,2013-06-05 13:33:00,
2013-06-05 03:42:00,62.0,54.0,-100.00,North,11,13.0,22.0,74,0.00,,,0.00,0.000000,,2013-06-05 13:42:00,
2013-06-05 03:52:00,62.0,54.0,-100.00,North,11,13.0,22.0,74,0.00,,,0.00,0.000000,,2013-06-05 13:52:00,
2013-06-05 04:01:00,63.0,49.0,-100.00,North,360,11.0,20.0,61,0.00,,,-99.99,0.000000,,2013-06-05 14:01:00,
2013-06-05 04:22:00,63.0,49.0,-100.00,North,360,11.0,20.0,61,0.00,,,-99.99,0.000000,,2013-06-05 14:22:00,
2013-06-05 04:32:00,63.0,49.0,-100.00,North,360,11.0,20.0,61,0.00,,,-99.99,0.000000,,2013-06-05 14:32:00,
2013-06-05 04:42:00,63.0,49.0,-100.00,North,360,11.0,20.0,61,0.00,,,-99.99,0.000000,,2013-06-05 14:42:00,
2013-06-05 04:52:00,63.0,49.0,-100.00,North,360,11.0,20.0,61,0.00,,,-99.99,0.000000,,2013-06-05 14:52:00,
2013-06-05 05:01:00,64.0,50.0,-100.00,North,360,13.0,26.0,61,0.00,,,0.00,0.000000,,2013-06-05 15:01:00,
2013-06-05 05:23:00,64.0,50.0,-100.00,North,360,13.0,26.0,61,0.00,,,0.00,0.000000,,2013-06-05 15:23:00,
2013-06-05 05:33:00,64.0,50.0,-100.00,North,360,13.0,26.0,61,0.00,,,0.00,0.000000,,2013-06-05 15:33:00,
2013-06-05 05:43:00,64.0,50.0,-100.00,North,360,13.0,26.0,61,0.00,,,0.00,0.000000,,2013-06-05 15:43:00,
2013-06-05 05:53:00,64.0,50.0,-100.00,North,360,13.0,26.0,61,0.00,,,0.00,0.000000,,2013-06-05 15:53:00,
2013-06-05 06:01:00,61.0,54.0,-100.00,NNE,12,18.0,26.0,79,0.00,,,0.00,3.000000,,2013-06-05 16:01:00,
2013-06-05 06:23:00,61.0,54.0,-100.00,NNE,12,18.0,26.0,79,0.00,,,0.00,3.000000,,2013-06-05 16:23:00,
2013-06-05 06:32:00,61.0,54.0,-100.00,NNE,12,18.0,26.0,79,0.00,,,0.00,3.000000,,2013-06-05 16:32:00,
2013-06-05 06:42:00,61.0,54.0,-100.00,NNE,12,18.0,26.0,79,0.00,,,0.00,3.000000,,2013-06-05 16:42:00,
2013-06-05 06:54:00,61.0,54.0,-100.00,NNE,12,18.0,26.0,79,0.00,,,0.00,3.000000,,2013-06-05 16:54:00,
2013-06-05 07:01:00,66.0,52.0,-100.00,NNE,15,17.0,27.0,61,0.00,,,0.00,126.000000,,2013-06-05 17:01:00,
2013-06-05 07:22:00,66.0,52.0,-100.00,NNE,15,17.0,27.0,61,0.00,,,0.00,126.000000,,2013-06-05 17:22:00,
2013-06-05 07:33:00,66.0,52.0,-100.00,NNE,15,17.0,27.0,61,0.00,,,0.00,126.000000,,2013-06-05 17:33:00,
2013-06-05 07:43:00,66.0,52.0,-100.00,NNE,15,17.0,27.0,61,0.00,,,0.00,126.000000,,2013-06-05 17:43:00,
2013-06-05 07:52:00,66.0,52.0,-100.00,NNE,15,17.0,27.0,61,0.00,,,0.00,126.000000,,2013-06-05 17:52:00,
2013-06-05 08:01:00,72.0,44.0,-100.00,NNE,22,16.0,23.0,37,0.00,,,0.00,328.000000,,2013-06-05 18:01:00,
2013-06-05 08:23:00,72.0,44.0,-100.00,NNE,22,16.0,23.0,37,0.00,,,0.00,328.000000,,2013-06-05 18:23:00,
2013-06-05 08:32:00,72.0,44.0,-100.00,NNE,22,16.0,23.0,37,0.00,,,0.00,328.000000,,2013-06-05 18:32:00,
2013-06-05 08:42:00,72.0,44.0,-100.00,NNE,22,16.0,23.0,37,0.00,,,0.00,328.000000,,2013-06-05 18:42:00,
2013-06-05 08:52:00,72.0,44.0,-100.00,NNE,22,16.0,23.0,37,0.00,,,0.00,328.000000,,2013-06-05 18:52:00,
2013-06-05 09:01:00,73.0,52.0,-100.00,NNE,26,18.0,29.0,48,0.00,,,0.00,533.000000,,2013-06-05 19:01:00,
2013-06-05 09:23:00,73.0,52.0,-100.00,NNE,26,18.0,29.0,48,0.00,,,0.00,533.000000,,2013-06-05 19:23:00,
2013-06-05 09:32:00,73.0,52.0,-100.00,NNE,26,18.0,29.0,48,0.00,,,0.00,533.000000,,2013-06-05 19:32:00,
2013-06-05 09:42:00,73.0,52.0,-100.00,NNE,26,18.0,29.0,48,0.00,,,0.00,533.000000,,2013-06-05 19:42:00,
2013-06-05 09:52:00,73.0,52.0,-100.00,NNE,26,18.0,29.0,48,0.00,,,0.00,533.000000,,2013-06-05 19:52:00,
2013-06-05 10:01:00,77.0,52.0,-100.00,NNE,26,19.0,30.0,42,0.00,,,0.00,509.000000,,2013-06-05 20:01:00,
2013-06-05 10:23:00,77.0,52.0,-100.00,NNE,26,19.0,30.0,42,0.00,,,0.00,509.000000,,2013-06-05 20:23:00,
2013-06-05 10:32:00,77.0,52.0,-100.00,NNE,26,19.0,30.0,42,0.00,,,0.00,509.000000,,2013-06-05 20:32:00,
2013-06-05 10:42:00,77.0,52.0,-100.00,NNE,26,19.0,30.0,42,0.00,,,0.00,509.000000,,2013-06-05 20:42:00,
2013-06-05 10:52:00,77.0,52.0,-100.00,NNE,26,19.0,30.0,42,0.00,,,0.00,509.000000,,2013-06-05 20:52:00,
2013-06-05 11:01:00,79.0,54.0,-100.00,NNE,26,18.0,27.0,42,0.00,,,0.00,900.000000,,2013-06-05 21:01:00,
2013-06-05 11:22:00,79.0,54.0,-100.00,NNE,26,18.0,27.0,42,0.00,,,0.00,900.000000,,2013-06-05 21:22:00,
2013-06-05 11:33:00,79.0,54.0,-100.00,NNE,26,18.0,27.0,42,0.00,,,0.00,900.000000,,2013-06-05 21:33:00,
2013-06-05 11:43:00,79.0,54.0,-100.00,NNE,26,18.0,27.0,42,0.00,,,0.00,900.000000,,2013-06-05 21:43:00,
2013-06-05 11:53:00,79.0,54.0,-100.00,NNE,26,18.0,27.0,42,0.00,,,0.00,900.000000,,2013-06-05 21:53:00,
2013-06-05 12:01:00,80.0,57.0,-100.00,NNE,19,18.0,27.0,46,0.00,,,0.00,984.000000,,2013-06-05 22:01:00,
2013-06-05 12:22:00,80.0,57.0,-100.00,NNE,19,18.0,27.0,46,0.00,,,0.00,984.000000,,2013-06-05 22:22:00,
2013-06-05 12:33:00,80.0,57.0,-100.00,NNE,19,18.0,27.0,46,0.00,,,0.00,984.000000,,2013-06-05 22:33:00,
2013-06-05 12:43:00,80.0,57.0,-100.00,NNE,19,18.0,27.0,46,0.00,,,0.00,984.000000,,2013-06-05 22:43:00,
2013-06-05 12:52:00,80.0,57.0,-100.00,NNE,19,18.0,27.0,46,0.00,,,0.00,984.000000,,2013-06-05 22:52:00,
2013-06-05 13:01:00,78.0,58.0,-100.00,NNE,29,22.0,31.0,51,0.00,,,0.00,1005.000000,,2013-06-05 23:01:00,
2013-06-05 13:22:00,78.0,58.0,-100.00,NNE,29,22.0,31.0,51,0.00,,,0.00,1005.000000,,2013-06-05 23:22:00,
2013-06-05 13:32:00,78.0,58.0,-100.00,NNE,29,22.0,31.0,51,0.00,,,0.00,1005.000000,,2013-06-05 23:32:00,
2013-06-05 13:42:00,78.0,58.0,-100.00,NNE,29,22.0,31.0,51,0.00,,,0.00,1005.000000,,2013-06-05 23:42:00,
2013-06-05 13:53:00,78.0,58.0,-100.00,NNE,29,22.0,31.0,51,0.00,,,0.00,1005.000000,,2013-06-05 23:53:00,
2013-06-05 14:01:00,78.0,58.0,-100.00,NE,39,20.0,34.0,50,0.00,,,0.00,984.000000,,2013-06-06 00:01:00,
2013-06-05 14:22:00,78.0,58.0,-100.00,NE,39,20.0,34.0,50,0.00,,,0.00,984.000000,,2013-06-06 00:22:00,
2013-06-05 14:32:00,78.0,58.0,-100.00,NE,39,20.0,34.0,50,0.00,,,0.00,984.000000,,2013-06-06 00:32:00,
2013-06-05 14:43:00,78.0,58.0,-100.00,NE,39,20.0,34.0,50,0.00,,,0.00,984.000000,,2013-06-06 00:43:00,
2013-06-05 14:52:00,78.0,58.0,-100.00,NE,39,20.0,34.0,50,0.00,,,0.00,984.000000,,2013-06-06 00:52:00,
2013-06-05 15:01:00,76.0,58.0,-100.00,NE,38,18.0,29.0,54,0.00,,,0.00,884.000000,,2013-06-06 01:01:00,
2013-06-05 15:22:00,76.0,58.0,-100.00,NE,38,18.0,29.0,54,0.00,,,0.00,884.000000,,2013-06-06 01:22:00,
2013-06-05 15:32:00,76.0,58.0,-100.00,NE,38,18.0,29.0,54,0.00,,,0.00,884.000000,,2013-06-06 01:32:00,
2013-06-05 15:42:00,76.0,58.0,-100.00,NE,38,18.0,29.0,54,0.00,,,0.00,884.000000,,2013-06-06 01:42:00,
2013-06-05 15:53:00,76.0,58.0,-100.00,NE,38,18.0,29.0,54,0.00,,,0.00,884.000000,,2013-06-06 01:53:00,
2013-06-05 16:01:00,75.0,58.0,-100.00,NNE,26,18.0,29.0,55,0.00,,,0.00,720.000000,,2013-06-06 02:01:00,
2013-06-05 16:22:00,75.0,58.0,-100.00,NNE,26,18.0,29.0,55,0.00,,,0.00,720.000000,,2013-06-06 02:22:00,
2013-06-05 16:32:00,75.0,58.0,-100.00,NNE,26,18.0,29.0,55,0.00,,,0.00,720.000000,,2013-06-06 02:32:00,
2013-06-05 16:42:00,75.0,58.0,-100.00,NNE,26,18.0,29.0,55,0.00,,,0.00,720.000000,,2013-06-06 02:42:00,
2013-06-05 16:52:00,75.0,58.0,-100.00,NNE,26,18.0,29.0,55,0.00,,,0.00,720.000000,,2013-06-06 02:52:00,
2013-06-05 17:01:00,73.0,57.0,-100.00,NNE,27,19.0,28.0,58,0.00,,,0.00,518.000000,,2013-06-06 03:01:00,
2013-06-05 17:22:00,73.0,57.0,-100.00,NNE,27,19.0,28.0,58,0.00,,,0.00,518.000000,,2013-06-06 03:22:00,
2013-06-05 17:33:00,73.0,57.0,-100.00,NNE,27,19.0,28.0,58,0.00,,,0.00,518.000000,,2013-06-06 03:33:00,
2013-06-05 17:43:00,73.0,57.0,-100.00,NNE,27,19.0,28.0,58,0.00,,,0.00,518.000000,,2013-06-06 03:43:00,
2013-06-05 17:52:00,73.0,57.0,-100.00,NNE,27,19.0,28.0,58,0.00,,,0.00,518.000000,,2013-06-06 03:52:00,
2013-06-05 18:01:00,69.0,57.0,-100.00,NNE,23,17.0,33.0,65,0.00,,,0.00,288.000000,,2013-06-06 04:01:00,
2013-06-05 18:23:00,69.0,57.0,-100.00,NNE,23,17.0,33.0,65,0.00,,,0.00,288.000000,,2013-06-06 04:23:00,
2013-06-05 18:33:00,69.0,57.0,-100.00,NNE,23,17.0,33.0,65,0.00,,,0.00,288.000000,,2013-06-06 04:33:00,
2013-06-05 18:42:00,69.0,57.0,-100.00,NNE,23,17.0,33.0,65,0.00,,,0.00,288.000000,,2013-06-06 04:42:00,
2013-06-05 18:53:00,69.0,57.0,-100.00,NNE,23,17.0,33.0,65,0.00,,,0.00,288.000000,,2013-06-06 04:53:00,
2013-06-05 19:01:00,66.0,57.0,-100.00,North,10,15.0,27.0,73,0.00,,,0.00,42.000000,,2013-06-06 05:01:00,
2013-06-05 19:23:00,66.0,57.0,-100.00,North,10,15.0,27.0,73,0.00,,,0.00,42.000000,,2013-06-06 05:23:00,
2013-06-05 19:32:00,66.0,57.0,-100.00,North,10,15.0,27.0,73,0.00,,,0.00,42.000000,,2013-06-06 05:32:00,
2013-06-05 19:42:00,66.0,57.0,-100.00,North,10,15.0,27.0,73,0.00,,,0.00,42.000000,,2013-06-06 05:42:00,
2013-06-05 19:52:00,66.0,57.0,-100.00,North,10,15.0,27.0,73,0.00,,,0.00,42.000000,,2013-06-06 05:52:00,
2013-06-05 20:01:00,64.0,57.0,-100.00,North,10,17.0,26.0,77,0.00,,,0.00,0.000000,,2013-06-06 06:01:00,
2013-06-05 20:22:00,64.0,57.0,-100.00,North,10,17.0,26.0,77,0.00,,,0.00,0.000000,,2013-06-06 06:22:00,
2013-06-05 20:33:00,64.0,57.0,-100.00,North,10,17.0,26.0,77,0.00,,,0.00,0.000000,,2013-06-06 06:33:00,
2013-06-05 20:42:00,64.0,57.0,-100.00,North,10,17.0,26.0,77,0.00,,,0.00,0.000000,,2013-06-06 06:42:00,
2013-06-05 20:52:00,64.0,57.0,-100.00,North,10,17.0,26.0,77,0.00,,,0.00,0.000000,,2013-06-06 06:52:00,
2013-06-05 21:01:00,63.0,56.0,-100.00,North,5,14.0,28.0,79,0.00,,,0.00,0.000000,,2013-06-06 07:01:00,
2013-06-05 21:22:00,63.0,56.0,-100.00,North,5,14.0,28.0,79,0.00,,,0.00,0.000000,,2013-06-06 07:22:00,
2013-06-05 21:32:00,63.0,56.0,-100.00,North,5,14.0,28.0,79,0.00,,,0.00,0.000000,,2013-06-06 07:32:00,
2013-06-05 21:42:00,63.0,56.0,-100.00,North,5,14.0,28.0,79,0.00,,,0.00,0.000000,,2013-06-06 07:42:00,
2013-06-05 21:52:00,63.0,56.0,-100.00,North,5,14.0,28.0,79,0.00,,,0.00,0.000000,,2013-06-06 07:52:00,
2013-06-05 22:01:00,63.0,56.0,-100.00,North,9,17.0,25.0,77,0.00,,,0.00,0.000000,,2013-06-06 08:01:00,
2013-06-05 22:22:00,63.0,56.0,-100.00,North,9,17.0,25.0,77,0.00,,,0.00,0.000000,,2013-06-06 08:22:00,
2013-06-05 22:32:00,63.0,56.0,-100.00,North,9,17.0,25.0,77,0.00,,,0.00,0.000000,,2013-06-06 08:32:00,
2013-06-05 22:42:00,63.0,56.0,-100.00,North,9,17.0,25.0,77,0.00,,,0.00,0.000000,,2013-06-06 08:42:00,
2013-06-05 22:52:00,63.0,56.0,-100.00,North,9,17.0,25.0,77,0.00,,,0.00,0.000000,,2013-06-06 08:52:00,
2013-06-05 23:01:00,62.0,55.0,-100.00,North,360,14.0,25.0,78,0.00,,,-99.99,0.000000,,2013-06-06 09:01:00,
2013-06-05 23:22:00,62.0,55.0,-100.00,North,360,14.0,25.0,78,0.00,,,-99.99,0.000000,,2013-06-06 09:22:00,
2013-06-05 23:33:00,62.0,55.0,-100.00,North,360,14.0,25.0,78,0.00,,,-99.99,0.000000,,2013-06-06 09:33:00,
2013-06-05 23:43:00,62.0,55.0,-100.00,North,360,14.0,25.0,78,0.00,,,-99.99,0.000000,,2013-06-06 09:43:00,
2013-06-05 23:53:00,62.0,55.0,-100.00,North,360,14.0,25.0,78,0.00,,,-99.99,0.000000,,2013-06-06 09:53:00,